Theta_e
314 314 315 315 314 315 317 318 322 322 322 322 323 323 327 324 319 316 320 323 320 323 327 324 320 318 318 320 323 325 335 335 330 329 323 326 325 324 322 326 328 328 331 335 336
313 313 314 315 314 315 316 318 320 322 322 321 322 323 326 323 319 321 324 325 325 322 324 322 322 320 323 320 322 331 336 337 332 327 324 325 325 322 324 326 327 328 332 337 336
313 313 312 314 314 314 315 317 318 321 321 321 321 322 324 322 323 326 326 327 328 327 324 324 324 323 324 322 320 334 339 335 335 323 319 324 325 323 323 326 325 327 332 337 336
312 312 312 313 313 314 314 315 318 316 319 318 319 321 324 322 332 326 327 326 327 328 325 325 324 326 326 327 323 327 333 335 333 318 318 320 321 322 321 321 318 323 331 336 334
312 311 311 311 312 313 314 315 316 317 315 316 318 321 324 324 326 321 326 326 326 327 328 327 326 323 326 327 327 326 328 329 317 317 317 316 318 319 320 320 317 325 331 336 335
311 311 310 310 312 312 313 315 315 317 315 315 316 318 323 326 324 319 325 325 325 327 328 329 328 325 326 327 329 327 327 324 318 316 316 317 317 316 317 317 316 323 329 332 333
310 309 309 309 312 312 313 314 315 317 316 315 316 316 323 324 323 316 325 325 326 326 328 330 331 325 323 326 321 323 329 323 318 322 322 318 320 317 316 317 316 319 326 329 331
309 308 309 311 312 312 312 312 314 316 316 318 317 317 324 322 324 315 321 324 325 325 325 328 330 326 327 320 320 322 323 329 325 321 319 318 333 327 318 317 317 317 318 325 330
308 308 309 311 311 311 311 311 313 315 315 314 315 316 317 320 322 319 322 323 323 322 322 326 325 323 324 323 325 324 327 327 328 324 317 318 329 328 327 319 318 316 317 320 324
306 308 309 310 310 310 313 312 313 314 315 316 315 317 314 321 321 320 321 323 323 321 320 321 326 326 321 329 335 328 328 326 328 325 323 318 320 323 323 319 319 318 318 317 322
305 307 308 308 308 310 311 313 314 315 314 316 315 312 313 314 320 321 322 324 319 320 322 321 323 330 328 328 330 327 330 332 329 321 321 322 322 322 322 323 316 316 318 318 320
305 307 308 307 307 308 311 313 312 313 316 315 313 314 313 314 322 322 322 320 319 323 321 320 326 326 327 326 328 329 332 334 327 315 317 320 321 321 320 321 322 320 319 317 317
307 307 307 306 306 307 311 312 312 312 314 315 314 313 314 313 317 323 321 318 319 323 324 324 323 324 328 328 328 330 331 333 335 319 317 317 320 320 320 319 317 316 315 315 315
306 306 306 305 308 309 310 311 311 310 313 313 316 314 313 312 315 321 319 319 321 323 324 323 321 323 325 327 326 331 325 328 329 323 325 319 323 321 320 321 320 317 312 312 312
306 305 305 305 306 309 308 310 309 308 314 313 315 313 312 313 317 320 319 319 322 323 322 321 321 323 326 326 324 326 322 323 322 324 324 324 321 318 317 318 320 320 317 313 311
306 306 305 305 306 308 309 309 308 310 313 315 315 316 317 314 317 319 321 317 320 322 321 318 319 321 323 322 322 319 319 320 320 321 324 322 320 316 316 317 317 319 320 319 316
306 304 305 306 308 308 309 309 310 310 309 313 311 317 316 317 319 321 321 320 324 326 325 317 322 314 320 323 319 319 319 321 324 323 321 311 318 316 316 317 317 317 315 315 313
304 304 305 305 306 308 308 309 311 308 312 308 312 314 319 318 318 320 320 320 322 319 322 322 324 317 317 323 321 319 321 321 321 321 317 310 315 314 315 314 313 312 311 309 311
303 303 303 303 305 306 308 308 309 311 309 312 312 315 314 316 314 319 317 321 320 319 321 321 319 316 316 320 318 320 322 317 315 305 316 315 315 315 314 314 314 312 310 309 309
302 302 303 302 303 305 306 305 307 309 312 312 316 312 317 313 315 318 319 319 318 317 314 316 318 316 315 316 315 319 317 318 318 315 317 316 317 315 315 314 311 311 310 310 310
301 302 301 301 302 305 304 303 305 308 310 313 315 315 312 315 315 318 320 318 317 317 314 313 315 313 311 315 316 313 319 316 317 318 321 320 315 313 312 312 310 308 309 309 310
301 302 302 302 303 303 303 306 305 305 309 311 310 314 313 315 316 317 318 318 315 316 315 313 313 313 314 307 307 313 317 316 317 320 317 317 316 310 310 309 307 308 309 309 310
302 304 302 303 302 303 303 302 305 308 308 310 310 311 314 313 318 319 318 318 315 316 312 311 312 315 315 312 308 312 313 316 313 315 317 315 314 308 307 307 308 309 309 308 309
303 303 303 302 302 302 301 304 306 304 308 308 310 309 311 312 315 318 320 318 315 315 312 312 312 314 316 316 312 313 314 315 315 314 318 316 314 308 307 307 308 308 308 310 308
303 303 302 303 302 302 303 303 306 307 306 308 309 308 310 311 314 317 318 318 316 314 311 312 310 311 311 310 312 313 315 314 316 315 316 315 315 313 309 309 307 306 311 310 309
300 303 304 303 302 304 303 303 304 306 309 308 309 309 310 310 310 316 318 318 316 313 312 311 308 307 308 310 311 314 315 314 315 315 315 314 314 313 311 311 310 310 309 309 309
298 300 305 304 304 304 304 303 303 304 306 307 308 309 311 310 309 308 316 315 313 313 313 311 307 309 306 310 311 311 313 314 315 314 315 315 313 309 309 310 309 308 308 308 307
Wind_Speed
28 25 22 23 24 25 25 24 24 25 24 25 22 23 23 22 19 16 15 10 15 6 12 7 8 10 1 3 2 2 4 4 7 3 5 6 5 2 1 6 3 3 5 12 29
30 26 23 22 25 25 26 25 27 27 23 24 21 23 24 24 18 21 14 21 14 14 12 12 9 9 3 3 2 4 4 6 11 6 1 6 6 8 5 8 4 6 10 24 26
31 28 26 24 24 25 27 26 26 27 25 21 21 21 25 24 16 11 27 21 21 17 11 15 18 10 8 5 4 3 4 9 11 6 8 4 4 4 4 6 8 10 10 19 21
32 29 27 26 26 26 26 28 27 27 35 23 20 19 26 24 13 21 30 29 21 18 14 8 7 11 9 8 8 5 6 5 6 1 1 3 2 5 6 3 5 5 20 19 18
33 29 28 27 26 26 26 27 29 26 27 33 23 19 26 10 12 6 33 35 28 21 19 11 9 12 14 11 9 7 5 10 2 3 3 2 4 2 7 6 8 10 16 15 16
33 30 28 28 26 27 27 27 28 29 28 27 28 22 18 21 18 10 25 33 30 28 21 20 7 11 6 11 12 6 7 7 7 5 3 4 5 3 8 9 10 9 11 12 13
32 31 29 27 26 28 26 26 29 30 31 26 26 24 16 18 27 16 27 35 29 31 19 19 15 5 3 4 4 2 7 6 6 5 4 5 8 7 8 3 8 9 10 10 14
33 31 28 24 24 26 26 25 26 28 31 30 29 24 8 28 28 27 24 23 26 23 18 19 12 1 3 5 2 3 1 5 6 9 4 5 8 11 11 9 9 10 9 10 15
32 31 27 25 20 21 23 23 25 26 26 28 14 10 9 10 27 32 31 22 28 22 18 17 13 4 3 4 2 6 4 6 4 14 6 7 2 7 9 11 9 8 10 10 9
30 31 27 23 20 17 18 19 20 20 21 21 15 6 6 7 22 31 30 28 24 18 10 6 4 6 4 11 11 5 4 7 7 7 8 7 10 8 5 2 7 8 8 10 11
31 31 29 25 21 18 15 12 5 7 11 7 6 4 8 4 24 26 34 30 20 20 11 11 7 13 20 14 6 14 12 8 12 5 5 9 9 11 10 8 8 8 8 7 11
32 33 30 26 22 20 18 6 14 2 7 18 10 12 14 6 9 22 41 17 23 26 16 10 19 18 14 15 14 9 12 9 5 6 2 7 11 9 10 10 10 9 9 9 7
33 34 31 26 21 18 15 11 11 7 3 5 13 15 13 4 11 25 29 16 27 24 24 21 15 17 19 18 17 14 11 9 6 5 5 6 10 11 11 11 9 10 8 9 9
33 32 29 25 17 18 12 13 11 10 3 9 9 7 8 7 8 27 32 20 9 27 25 12 11 19 18 19 17 16 11 9 8 4 2 6 5 5 5 16 17 13 11 12 10
34 31 30 33 14 15 14 20 17 6 6 6 10 15 10 12 7 18 34 6 19 16 14 14 22 24 21 18 13 5 9 4 6 1 6 5 2 6 7 6 8 18 14 13 12
34 36 35 24 13 21 25 27 12 5 9 6 6 14 12 18 11 21 15 1 12 15 5 4 5 12 7 8 9 8 10 7 3 2 6 10 8 5 6 7 8 4 10 14 11
37 34 30 20 10 23 33 12 5 8 5 5 7 14 24 10 16 23 15 17 13 16 16 4 7 4 9 14 6 8 12 3 2 4 6 5 8 10 5 3 2 1 6 4 3
35 30 21 15 20 24 22 4 7 11 7 2 2 2 13 15 11 24 15 16 15 17 18 13 10 13 11 24 13 20 13 5 7 5 4 4 7 6 8 2 5 3 3 6 4
34 20 17 15 15 20 7 9 5 3 12 6 4 5 3 5 6 18 15 18 16 21 13 12 5 11 15 18 13 14 16 5 6 0 2 5 6 7 10 4 4 7 7 7 6
21 15 11 22 13 11 5 11 4 2 4 7 8 4 3 8 8 13 21 18 16 15 9 5 6 7 7 8 5 18 11 5 2 5 5 5 4 6 4 7 6 5 5 3 4
18 5 16 25 16 4 7 5 6 6 5 6 9 4 3 7 6 12 24 15 23 19 10 14 6 2 7 8 17 6 15 6 5 4 5 1 5 6 9 8 8 7 6 5 3
6 5 29 30 7 5 8 6 8 13 6 2 3 6 5 11 8 7 19 18 26 23 20 3 6 9 12 3 5 6 12 4 5 6 2 3 5 3 9 9 9 8 7 5 3
9 4 30 28 8 10 6 12 7 4 10 7 8 4 7 4 8 11 21 9 26 22 13 8 6 9 4 6 1 9 10 18 5 4 6 5 5 2 8 8 6 8 6 6 5
4 5 5 9 3 13 14 9 9 15 8 10 4 5 3 3 10 15 15 12 25 20 12 7 5 7 15 14 7 8 14 14 5 3 5 11 5 6 6 7 7 5 6 3 6
2 3 5 11 13 15 15 12 16 7 12 11 4 13 8 6 10 12 17 9 18 19 9 7 5 5 7 8 11 20 13 7 15 8 8 14 14 9 10 9 10 9 4 4 3
5 4 2 8 17 15 19 15 21 19 8 12 18 17 12 13 16 4 14 15 17 16 18 8 5 6 4 7 10 20 22 20 27 27 20 11 12 4 9 6 6 3 2 3 3
2 3 1 6 15 15 15 20 23 23 19 19 20 11 17 23 17 21 21 24 16 28 22 12 6 6 1 7 11 0 26 28 26 21 27 14 13 6 5 4 6 6 4 4 5
Wind_Direction
231 232 233 238 241 240 241 235 228 222 219 221 222 226 222 217 207 201 204 211 206 213 195 211 254 246 353 62 62 131 71 270 238 295 111 143 121 25 349 115 79 47 45 139 156
227 227 230 234 236 236 236 234 225 220 216 215 217 228 225 214 208 217 205 203 196 197 185 197 228 224 190 151 200 178 138 241 336 341 49 157 193 136 161 126 125 96 87 121 146
225 224 228 230 232 233 233 232 227 220 208 214 215 225 229 210 230 225 212 196 202 197 188 191 232 223 233 152 184 197 192 160 286 346 355 153 227 117 196 173 188 166 155 143 151
222 222 225 227 229 230 230 228 229 226 223 217 218 219 224 197 229 204 205 203 191 193 202 180 218 224 223 203 175 203 210 175 225 232 358 289 298 159 234 119 93 137 157 155 165
220 220 225 226 227 225 226 223 226 226 221 217 214 218 201 220 226 206 199 200 193 172 197 196 211 199 221 194 190 210 213 177 101 127 253 38 251 247 214 199 107 99 150 165 170
216 220 225 225 226 223 222 222 221 221 220 211 210 223 215 229 212 212 186 188 179 176 188 195 213 224 272 215 218 176 209 186 156 182 205 248 211 127 234 244 133 149 163 170 179
211 220 224 222 224 219 219 221 218 219 218 209 201 216 214 221 197 177 180 185 179 177 173 192 224 198 337 174 357 79 208 163 162 209 234 202 266 219 244 138 157 181 176 171 183
211 217 213 211 214 215 217 220 219 208 212 209 211 224 256 217 210 172 172 187 187 189 182 189 183 124 25 331 162 212 253 181 200 167 198 172 253 219 221 205 208 190 210 187 184
210 206 203 201 201 208 213 216 213 209 210 214 205 201 256 236 211 192 166 173 179 177 192 155 133 146 70 117 127 213 181 201 273 185 134 183 268 242 251 211 198 224 195 190 193
201 200 195 189 187 191 199 201 202 201 205 192 194 175 250 260 197 188 179 164 163 156 113 117 133 167 181 183 200 141 200 186 208 195 192 196 242 285 305 340 210 237 249 186 179
201 196 191 186 180 179 162 142 153 203 201 193 130 181 252 294 194 182 175 158 158 159 163 171 161 202 188 194 187 174 192 199 216 151 154 238 249 241 236 241 220 244 247 238 181
195 192 184 183 180 184 176 189 198 178 193 217 187 179 221 233 243 186 162 154 166 178 146 155 213 194 192 192 224 191 171 214 351 121 174 266 261 232 219 231 216 218 240 250 201
188 185 185 181 173 173 183 185 158 170 178 204 194 199 188 222 259 179 168 144 177 172 173 178 182 171 183 193 203 218 209 187 200 152 226 293 282 238 236 239 214 216 209 240 222
186 184 180 169 154 171 189 152 134 100 217 196 185 222 194 218 276 182 181 148 171 185 184 193 166 185 191 193 188 207 220 156 200 113 241 156 285 310 279 223 218 212 211 221 230
183 184 179 168 153 174 169 157 127 86 248 181 160 159 174 175 205 199 183 197 165 168 171 187 185 182 191 188 181 191 117 100 96 279 323 235 264 269 231 260 212 214 215 216 216
174 170 168 171 147 166 157 149 129 154 213 216 165 175 162 181 228 170 200 61 154 159 195 62 150 173 150 145 148 134 114 96 105 121 265 217 206 260 213 218 217 194 201 215 219
162 165 164 162 140 156 149 142 151 206 105 212 224 175 178 178 202 181 176 166 161 148 172 127 175 67 158 145 123 155 136 125 166 200 232 348 198 237 270 120 66 303 273 310 40
161 161 156 155 157 150 151 120 212 176 193 163 264 311 175 167 196 178 164 171 171 171 153 158 177 165 186 175 179 174 167 152 179 188 201 310 229 245 244 14 130 222 262 295 272
154 142 141 153 138 160 163 188 191 159 196 152 96 215 169 166 160 165 172 176 176 171 160 165 161 173 175 168 148 199 195 128 105 94 73 201 252 288 262 218 255 267 189 240 247
139 134 152 174 154 146 176 211 187 161 128 154 190 217 190 167 163 186 172 190 174 176 130 158 102 173 169 149 216 183 155 157 208 151 234 249 233 227 206 206 215 170 179 107 58
123 121 162 169 167 175 198 207 211 204 182 166 192 155 230 179 176 182 180 191 179 186 167 124 115 146 133 204 186 156 186 184 134 171 174 155 257 206 175 166 157 116 96 72 40
131 161 161 160 163 191 208 177 201 203 166 142 105 198 204 197 176 157 188 188 183 174 178 124 115 152 192 343 5 234 191 151 169 206 210 152 267 193 136 139 130 142 134 141 159
152 111 162 168 170 191 216 219 225 192 183 172 200 167 178 246 197 203 185 200 195 178 157 170 137 119 154 338 299 208 221 192 95 94 199 133 254 284 121 126 146 143 149 162 158
135 145 147 197 206 188 188 206 190 220 219 202 193 168 186 288 273 215 195 212 180 171 126 101 133 169 184 183 111 186 203 199 135 138 160 218 144 157 171 176 170 184 218 219 149
154 169 157 175 210 193 187 196 198 190 219 191 196 231 202 237 264 230 222 165 197 157 150 119 135 130 161 153 150 174 193 198 214 193 190 227 215 213 194 190 188 195 221 324 335
131 145 201 166 194 202 196 211 199 202 159 208 220 200 198 214 218 256 168 177 181 185 180 172 144 118 37 151 158 181 192 190 204 209 227 247 263 162 224 227 200 208 261 254 227
174 12 129 191 185 191 200 211 212 207 212 211 205 203 205 215 209 227 223 182 181 181 184 162 126 135 142 124 107 49 202 196 216 207 216 210 221 133 120 130 183 245 280 247 244